Weather in Greven

Germany     52°05′30″N   7°36′34″E
temp.,
°C
wind,
m/s
gust,
m/s
humid.,
%
clouds,
%
prec.,
mm/h
press.,
hPa
HPBL,
m
7 may, fri
fri723:00+5nne3492100 0.8 1005187
02:00+4nw119664 1.1 100625
05:00+3w359571 0.4 1008242
08:00+4w3590100 0.4 1010342
11:00+7w566754 0.4 10121412
14:00+10wnw7845100 0.7 10142177
17:00+11wnw794563 0.0 10152317
20:00+8wnw48625 0.0 1017520
8 may, sat
sat823:00+4w23800 0.0 101860
02:00+2sw22841 0.0 101920
05:00+2ssw228213 0.0 101926
08:00+5sse3469100 0.0 1018164
11:00+11s4655100 0.0 1017824
14:00+14ssw5844100 0.0 10141744
17:00+13s3760100 0.0 1012498
20:00+10sse41088100 1.1 1010298
9 may, sun
sun923:00+11s6158553 0.0 1009405
02:00+11s5148792 0.0 1008318
05:00+10s41192100 0.0 1007206
08:00+12sse41283100 0.0 1006270
11:00+20sse61260100 0.0 1004636
14:00+24s71153100 0.0 10031344
17:00+25ssw7115386 0.0 10021592
20:00+20ssw51267100 0.0 1001499
10 may, mon
mon1023:00+19ssw61467100 0.1 1003615
02:00+15sse3688100 0.1 1003153
05:00+15sse4886100 0.1 1002221
08:00+15s81688100 1.6 1004966
11:00+13wsw101487100 3.1 1007936
14:00+17wsw71061100 3.2 10091573
17:00+17wsw4660100 0.0 10091291
20:00+14nnw1173100 0.0 101019
11 may, tue
tue1123:00+13ene0073100 0.0 101112
02:00+11se2295100 2.6 101169
05:00+11se2396100 1.1 101196
08:00+12ese3590100 1.2 1012289
11:00+12ese3584100 0.0 1012389
14:00+16ese666249 0.1 10111387
17:00+14ese577398 0.1 1010594
20:00+13e477893 0.1 1009376